Time,TemperatureF,DewpointF,PressureIn,WindDirection,WindDirectionDegrees,WindSpeedMPH,WindSpeedGustMPH,Humidity,HourlyPrecipIn,Conditions,Clouds,dailyrainin,SoftwareType,DateUTC
2013-03-29 00:00:00,38.8,31.6,30.12,North,349,0.0,0.0,75,0.00,,,0.00,Wunderground v.1.15,2013-03-29 04:00:00,
2013-03-29 00:04:00,38.6,31.4,30.12,North,349,0.0,0.0,75,0.00,,,0.00,Wunderground v.1.15,2013-03-29 04:04:00,
2013-03-29 00:06:00,38.6,31.4,30.12,North,349,0.0,0.0,75,0.00,,,0.00,Wunderground v.1.15,2013-03-29 04:06:00,
2013-03-29 00:11:00,38.5,31.6,30.12,North,349,0.0,0.0,76,0.00,,,0.00,Wunderground v.1.15,2013-03-29 04:11:00,
2013-03-29 00:17:00,38.3,31.7,30.13,North,349,0.0,0.0,77,0.00,,,0.00,Wunderground v.1.15,2013-03-29 04:17:00,
2013-03-29 00:22:00,38.3,32.0,30.13,North,349,0.0,0.0,78,0.00,,,0.00,Wunderground v.1.15,2013-03-29 04:22:00,
2013-03-29 00:27:00,38.2,32.3,30.13,North,349,0.0,0.0,79,0.00,,,0.00,Wunderground v.1.15,2013-03-29 04:27:00,
2013-03-29 00:32:00,38.2,32.3,30.13,North,349,0.0,0.0,79,0.00,,,0.00,Wunderground v.1.15,2013-03-29 04:32:00,
2013-03-29 00:38:00,38.2,32.3,30.13,North,349,0.0,0.0,79,0.00,,,0.00,Wunderground v.1.15,2013-03-29 04:38:00,
2013-03-29 00:43:00,38.0,32.1,30.13,North,349,0.0,0.0,79,0.00,,,0.00,Wunderground v.1.15,2013-03-29 04:43:00,
2013-03-29 00:49:00,37.9,32.3,30.12,North,349,0.0,0.0,80,0.00,,,0.00,Wunderground v.1.15,2013-03-29 04:49:00,
2013-03-29 00:54:00,37.8,32.5,30.12,North,349,0.0,0.0,81,0.00,,,0.00,Wunderground v.1.15,2013-03-29 04:54:00,
2013-03-29 00:59:00,37.6,32.6,30.12,North,349,0.0,0.0,82,0.00,,,0.00,Wunderground v.1.15,2013-03-29 04:59:00,
2013-03-29 01:04:00,37.6,32.6,30.12,North,349,0.0,0.0,82,0.00,,,0.00,Wunderground v.1.15,2013-03-29 05:04:00,
2013-03-29 01:09:00,37.6,32.9,30.12,North,349,0.0,0.0,83,0.00,,,0.00,Wunderground v.1.15,2013-03-29 05:09:00,
2013-03-29 01:15:00,37.6,32.9,30.13,North,349,0.0,0.0,83,0.00,,,0.00,Wunderground v.1.15,2013-03-29 05:15:00,
2013-03-29 01:20:00,37.3,32.6,30.13,North,349,0.0,0.0,83,0.00,,,0.00,Wunderground v.1.15,2013-03-29 05:20:00,
2013-03-29 01:25:00,37.3,32.6,30.13,North,349,0.0,0.0,83,0.00,,,0.00,Wunderground v.1.15,2013-03-29 05:25:00,
2013-03-29 01:30:00,37.2,32.8,30.13,North,349,0.0,0.0,84,0.00,,,0.00,Wunderground v.1.15,2013-03-29 05:30:00,
2013-03-29 01:36:00,37.2,32.8,30.13,North,349,0.0,0.0,84,0.00,,,0.00,Wunderground v.1.15,2013-03-29 05:36:00,
2013-03-29 01:41:00,37.2,32.8,30.13,North,349,0.0,0.0,84,0.00,,,0.00,Wunderground v.1.15,2013-03-29 05:41:00,
2013-03-29 01:47:00,37.0,32.6,30.13,North,349,0.0,0.0,84,0.00,,,0.00,Wunderground v.1.15,2013-03-29 05:47:00,
2013-03-29 01:52:00,36.9,32.5,30.13,North,349,0.0,0.0,84,0.00,,,0.00,Wunderground v.1.15,2013-03-29 05:52:00,
2013-03-29 01:57:00,36.9,32.5,30.13,North,349,0.0,0.0,84,0.00,,,0.00,Wunderground v.1.15,2013-03-29 05:57:00,
2013-03-29 02:02:00,36.9,32.8,30.13,North,349,0.0,0.0,85,0.00,,,0.00,Wunderground v.1.15,2013-03-29 06:02:00,
2013-03-29 02:07:00,36.8,32.7,30.13,North,349,0.0,0.0,85,0.00,,,0.00,Wunderground v.1.15,2013-03-29 06:07:00,
2013-03-29 02:13:00,36.8,32.7,30.13,North,349,0.0,0.0,85,0.00,,,0.00,Wunderground v.1.15,2013-03-29 06:13:00,
2013-03-29 02:18:00,36.8,33.0,30.13,North,349,0.0,0.0,86,0.00,,,0.00,Wunderground v.1.15,2013-03-29 06:18:00,
2013-03-29 02:23:00,36.8,33.0,30.13,North,349,0.0,0.0,86,0.00,,,0.00,Wunderground v.1.15,2013-03-29 06:23:00,
2013-03-29 02:29:00,36.8,33.0,30.13,North,349,0.0,0.0,86,0.00,,,0.00,Wunderground v.1.15,2013-03-29 06:29:00,
2013-03-29 02:35:00,36.6,32.8,30.13,North,349,0.0,0.0,86,0.00,,,0.00,Wunderground v.1.15,2013-03-29 06:35:00,
2013-03-29 02:40:00,36.6,32.8,30.13,North,349,0.0,0.0,86,0.00,,,0.00,Wunderground v.1.15,2013-03-29 06:40:00,
2013-03-29 02:46:00,36.5,32.7,30.13,North,349,0.0,0.0,86,0.00,,,0.00,Wunderground v.1.15,2013-03-29 06:46:00,
2013-03-29 02:51:00,36.5,32.7,30.13,North,349,0.0,0.0,86,0.00,,,0.00,Wunderground v.1.15,2013-03-29 06:51:00,
2013-03-29 02:56:00,36.3,32.5,30.13,North,349,0.0,0.0,86,0.00,,,0.00,Wunderground v.1.15,2013-03-29 06:56:00,
2013-03-29 03:01:00,36.3,32.5,30.13,North,349,0.0,0.0,86,0.00,,,0.00,Wunderground v.1.15,2013-03-29 07:01:00,
2013-03-29 03:07:00,36.2,32.1,30.13,North,349,0.0,0.0,85,0.00,,,0.00,Wunderground v.1.15,2013-03-29 07:07:00,
2013-03-29 03:14:00,36.3,32.2,30.13,North,349,0.0,0.0,85,0.00,,,0.00,Wunderground v.1.15,2013-03-29 07:14:00,
2013-03-29 03:19:00,36.3,32.2,30.13,North,349,0.0,0.0,85,0.00,,,0.00,Wunderground v.1.15,2013-03-29 07:19:00,
2013-03-29 03:24:00,36.2,32.1,30.13,North,349,0.0,0.0,85,0.00,,,0.00,Wunderground v.1.15,2013-03-29 07:24:00,
2013-03-29 03:29:00,36.2,32.1,30.13,North,349,0.0,0.0,85,0.00,,,0.00,Wunderground v.1.15,2013-03-29 07:29:00,
2013-03-29 03:34:00,36.2,31.5,30.13,North,349,0.0,2.0,83,0.00,,,0.00,Wunderground v.1.15,2013-03-29 07:34:00,
2013-03-29 03:40:00,36.3,31.3,30.13,North,349,0.0,2.0,82,0.00,,,0.00,Wunderground v.1.15,2013-03-29 07:40:00,
2013-03-29 03:45:00,36.3,31.0,30.13,North,349,0.0,2.0,81,0.00,,,0.00,Wunderground v.1.15,2013-03-29 07:45:00,
2013-03-29 03:50:00,36.5,30.9,30.13,North,349,0.0,2.0,80,0.00,,,0.00,Wunderground v.1.15,2013-03-29 07:50:00,
2013-03-29 03:55:00,36.3,30.7,30.13,North,349,0.0,2.0,80,0.00,,,0.00,Wunderground v.1.15,2013-03-29 07:55:00,
2013-03-29 04:01:00,36.3,30.1,30.13,North,349,0.0,2.0,78,0.00,,,0.00,Wunderground v.1.15,2013-03-29 08:01:00,
2013-03-29 04:06:00,36.3,30.1,30.13,North,349,0.0,2.0,78,0.00,,,0.00,Wunderground v.1.15,2013-03-29 08:06:00,
2013-03-29 04:12:00,36.3,30.1,30.13,North,349,0.0,2.0,78,0.00,,,0.00,Wunderground v.1.15,2013-03-29 08:12:00,
2013-03-29 04:17:00,36.3,30.4,30.14,North,349,0.0,2.0,79,0.00,,,0.00,Wunderground v.1.15,2013-03-29 08:17:00,
2013-03-29 04:22:00,36.5,30.3,30.14,North,349,0.0,2.0,78,0.00,,,0.00,Wunderground v.1.15,2013-03-29 08:22:00,
2013-03-29 04:27:00,36.5,30.6,30.14,North,349,0.0,2.0,79,0.00,,,0.00,Wunderground v.1.15,2013-03-29 08:27:00,
2013-03-29 04:32:00,36.5,30.3,30.14,North,349,0.0,2.0,78,0.00,,,0.00,Wunderground v.1.15,2013-03-29 08:32:00,
2013-03-29 04:38:00,36.5,30.0,30.14,North,349,0.0,2.0,77,0.00,,,0.00,Wunderground v.1.15,2013-03-29 08:38:00,
2013-03-29 04:43:00,36.5,30.3,30.14,North,349,0.0,1.0,78,0.00,,,0.00,Wunderground v.1.15,2013-03-29 08:43:00,
2013-03-29 04:48:00,36.3,29.8,30.14,North,349,0.0,1.0,77,0.00,,,0.00,Wunderground v.1.15,2013-03-29 08:48:00,
2013-03-29 04:54:00,36.3,30.1,30.14,North,349,0.0,1.0,78,0.00,,,0.00,Wunderground v.1.15,2013-03-29 08:54:00,
2013-03-29 04:59:00,36.3,30.1,30.14,North,349,0.0,1.0,78,0.00,,,0.00,Wunderground v.1.15,2013-03-29 08:59:00,
2013-03-29 05:04:00,36.2,30.0,30.14,North,349,0.0,1.0,78,0.00,,,0.00,Wunderground v.1.15,2013-03-29 09:04:00,
2013-03-29 05:09:00,36.0,29.5,30.14,North,349,0.0,1.0,77,0.00,,,0.00,Wunderground v.1.15,2013-03-29 09:09:00,
2013-03-29 05:14:00,35.9,29.1,30.14,North,349,0.0,1.0,76,0.00,,,0.00,Wunderground v.1.15,2013-03-29 09:14:00,
2013-03-29 05:20:00,35.9,29.1,30.14,North,349,0.0,1.0,76,0.00,,,0.00,Wunderground v.1.15,2013-03-29 09:20:00,
2013-03-29 05:25:00,35.8,29.3,30.14,North,349,0.0,1.0,77,0.00,,,0.00,Wunderground v.1.15,2013-03-29 09:25:00,
2013-03-29 05:30:00,35.6,29.4,30.14,North,349,0.0,1.0,78,0.00,,,0.00,Wunderground v.1.15,2013-03-29 09:30:00,
2013-03-29 05:35:00,35.5,29.3,30.14,North,349,0.0,2.0,78,0.00,,,0.00,Wunderground v.1.15,2013-03-29 09:35:00,
2013-03-29 05:41:00,35.3,29.1,30.14,North,349,0.0,2.0,78,0.00,,,0.00,Wunderground v.1.15,2013-03-29 09:41:00,
2013-03-29 05:46:00,35.3,29.1,30.14,North,349,0.0,2.0,78,0.00,,,0.00,Wunderground v.1.15,2013-03-29 09:46:00,
2013-03-29 05:51:00,35.2,29.0,30.14,North,349,0.0,2.0,78,0.00,,,0.00,Wunderground v.1.15,2013-03-29 09:51:00,
2013-03-29 05:57:00,35.0,29.1,30.14,North,349,0.0,2.0,79,0.00,,,0.00,Wunderground v.1.15,2013-03-29 09:57:00,
2013-03-29 06:02:00,34.9,29.4,30.15,North,349,0.0,2.0,80,0.00,,,0.00,Wunderground v.1.15,2013-03-29 10:02:00,
2013-03-29 06:07:00,34.7,29.5,30.15,North,349,0.0,2.0,81,0.00,,,0.00,Wunderground v.1.15,2013-03-29 10:07:00,
2013-03-29 06:13:00,34.6,29.4,30.15,North,349,0.0,0.0,81,0.00,,,0.00,Wunderground v.1.15,2013-03-29 10:13:00,
2013-03-29 06:18:00,34.4,29.5,30.15,North,349,0.0,0.0,82,0.00,,,0.00,Wunderground v.1.15,2013-03-29 10:18:00,
2013-03-29 06:23:00,34.3,29.1,30.15,North,349,0.0,0.0,81,0.00,,,0.00,Wunderground v.1.15,2013-03-29 10:23:00,
2013-03-29 06:29:00,34.1,28.9,30.15,North,349,0.0,0.0,81,0.00,,,0.00,Wunderground v.1.15,2013-03-29 10:29:00,
2013-03-29 06:34:00,34.0,28.8,30.15,North,349,0.0,0.0,81,0.00,,,0.00,Wunderground v.1.15,2013-03-29 10:34:00,
2013-03-29 06:40:00,33.8,28.9,30.15,North,349,0.0,0.0,82,0.00,,,0.00,Wunderground v.1.15,2013-03-29 10:40:00,
2013-03-29 06:46:00,33.7,29.1,30.16,North,349,0.0,0.0,83,0.00,,,0.00,Wunderground v.1.15,2013-03-29 10:46:00,
2013-03-29 06:51:00,33.7,29.1,30.16,North,349,0.0,0.0,83,0.00,,,0.00,Wunderground v.1.15,2013-03-29 10:51:00,
2013-03-29 06:56:00,33.5,29.2,30.16,North,349,0.0,0.0,84,0.00,,,0.00,Wunderground v.1.15,2013-03-29 10:56:00,
2013-03-29 07:01:00,33.4,29.1,30.17,North,349,0.0,0.0,84,0.00,,,0.00,Wunderground v.1.15,2013-03-29 11:01:00,
2013-03-29 07:07:00,33.4,29.4,30.17,North,349,0.0,0.0,85,0.00,,,0.00,Wunderground v.1.15,2013-03-29 11:07:00,
2013-03-29 07:13:00,33.4,29.4,30.17,North,349,0.0,0.0,85,0.00,,,0.00,Wunderground v.1.15,2013-03-29 11:13:00,
2013-03-29 07:18:00,33.2,29.2,30.17,North,349,0.0,0.0,85,0.00,,,0.00,Wunderground v.1.15,2013-03-29 11:18:00,
2013-03-29 07:23:00,33.1,29.4,30.17,North,349,0.0,0.0,86,0.00,,,0.00,Wunderground v.1.15,2013-03-29 11:23:00,
2013-03-29 07:28:00,33.1,29.4,30.17,North,349,0.0,0.0,86,0.00,,,0.00,Wunderground v.1.15,2013-03-29 11:28:00,
2013-03-29 07:34:00,32.9,29.2,30.17,North,349,0.0,0.0,86,0.00,,,0.00,Wunderground v.1.15,2013-03-29 11:34:00,
2013-03-29 07:39:00,32.9,29.2,30.17,North,349,0.0,0.0,86,0.00,,,0.00,Wunderground v.1.15,2013-03-29 11:39:00,
2013-03-29 07:44:00,32.9,29.5,30.17,North,349,0.0,0.0,87,0.00,,,0.00,Wunderground v.1.15,2013-03-29 11:44:00,
2013-03-29 07:50:00,32.9,29.5,30.17,North,349,0.0,0.0,87,0.00,,,0.00,Wunderground v.1.15,2013-03-29 11:50:00,
2013-03-29 07:55:00,33.1,29.9,30.17,North,349,0.0,0.0,88,0.00,,,0.00,Wunderground v.1.15,2013-03-29 11:55:00,
2013-03-29 08:00:00,33.2,30.0,30.18,North,349,0.0,0.0,88,0.00,,,0.00,Wunderground v.1.15,2013-03-29 12:00:00,
2013-03-29 08:06:00,33.5,30.3,30.18,North,349,0.0,0.0,88,0.00,,,0.00,Wunderground v.1.15,2013-03-29 12:06:00,
2013-03-29 08:12:00,33.7,30.5,30.18,North,349,0.0,0.0,88,0.00,,,0.00,Wunderground v.1.15,2013-03-29 12:12:00,
2013-03-29 08:17:00,34.1,31.2,30.18,North,349,0.0,0.0,89,0.00,,,0.00,Wunderground v.1.15,2013-03-29 12:17:00,
2013-03-29 08:22:00,34.6,31.7,30.18,North,349,0.0,0.0,89,0.00,,,0.00,Wunderground v.1.15,2013-03-29 12:22:00,
2013-03-29 08:27:00,35.0,32.1,30.18,North,349,0.0,0.0,89,0.00,,,0.00,Wunderground v.1.15,2013-03-29 12:27:00,
2013-03-29 08:32:00,35.6,32.7,30.19,North,349,0.0,0.0,89,0.00,,,0.00,Wunderground v.1.15,2013-03-29 12:32:00,
2013-03-29 08:38:00,36.3,33.1,30.19,North,349,0.0,0.0,88,0.00,,,0.00,Wunderground v.1.15,2013-03-29 12:38:00,
2013-03-29 08:43:00,37.0,33.2,30.19,North,349,0.0,0.0,86,0.00,,,0.00,Wunderground v.1.15,2013-03-29 12:43:00,
2013-03-29 08:48:00,37.9,33.8,30.18,North,349,0.0,0.0,85,0.00,,,0.00,Wunderground v.1.15,2013-03-29 12:48:00,
2013-03-29 08:54:00,39.3,34.9,30.18,North,349,0.0,0.0,84,0.00,,,0.00,Wunderground v.1.15,2013-03-29 12:54:00,
2013-03-29 08:59:00,40.8,34.5,30.19,North,349,0.0,0.0,78,0.00,,,0.00,Wunderground v.1.15,2013-03-29 12:59:00,
2013-03-29 09:04:00,41.9,33.5,30.19,North,349,0.0,0.0,72,0.00,,,0.00,Wunderground v.1.15,2013-03-29 13:04:00,
2013-03-29 09:10:00,43.8,32.4,30.19,East,84,0.0,0.0,64,0.00,,,0.00,Wunderground v.1.15,2013-03-29 13:10:00,
2013-03-29 09:16:00,45.4,31.9,30.19,ESE,105,1.0,4.0,59,0.00,,,0.00,Wunderground v.1.15,2013-03-29 13:16:00,
2013-03-29 09:21:00,46.4,32.0,30.19,ESE,105,1.0,4.0,57,0.00,,,0.00,Wunderground v.1.15,2013-03-29 13:21:00,
2013-03-29 09:26:00,47.3,31.9,30.19,ESE,105,0.0,3.0,55,0.00,,,0.00,Wunderground v.1.15,2013-03-29 13:26:00,
2013-03-29 09:31:00,48.3,31.9,30.19,East,99,1.0,3.0,53,0.00,,,0.00,Wunderground v.1.15,2013-03-29 13:31:00,
2013-03-29 09:37:00,49.5,32.1,30.19,East,99,1.0,5.0,51,0.00,,,0.00,Wunderground v.1.15,2013-03-29 13:37:00,
2013-03-29 09:42:00,50.5,32.0,30.19,East,99,1.0,1.0,49,0.00,,,0.00,Wunderground v.1.15,2013-03-29 13:42:00,
2013-03-29 09:48:00,51.1,31.0,30.19,East,94,1.0,5.0,46,0.00,,,0.00,Wunderground v.1.15,2013-03-29 13:48:00,
2013-03-29 09:53:00,51.9,29.5,30.19,East,91,1.0,5.0,42,0.00,,,0.00,Wunderground v.1.15,2013-03-29 13:53:00,
2013-03-29 09:58:00,52.5,28.8,30.19,East,91,1.0,5.0,40,0.00,,,0.00,Wunderground v.1.15,2013-03-29 13:58:00,
2013-03-29 10:03:00,53.1,28.1,30.19,East,92,1.0,4.0,38,0.00,,,0.00,Wunderground v.1.15,2013-03-29 14:03:00,
2013-03-29 10:09:00,53.5,26.5,30.19,ESE,107,1.0,4.0,35,0.00,,,0.00,Wunderground v.1.15,2013-03-29 14:09:00,
2013-03-29 10:14:00,53.9,26.1,30.19,ESE,109,2.0,4.0,34,0.00,,,0.00,Wunderground v.1.15,2013-03-29 14:14:00,
2013-03-29 10:19:00,54.2,26.4,30.19,ESE,107,2.0,4.0,34,0.00,,,0.00,Wunderground v.1.15,2013-03-29 14:19:00,
2013-03-29 10:25:00,54.5,27.4,30.19,East,91,2.0,4.0,35,0.00,,,0.00,Wunderground v.1.15,2013-03-29 14:25:00,
2013-03-29 10:30:00,55.0,27.8,30.19,East,91,1.0,4.0,35,0.00,,,0.00,Wunderground v.1.15,2013-03-29 14:30:00,
2013-03-29 10:35:00,55.0,27.8,30.19,ESE,113,0.0,6.0,35,0.00,,,0.00,Wunderground v.1.15,2013-03-29 14:35:00,
2013-03-29 10:41:00,54.7,26.1,30.19,SE,144,1.0,6.0,33,0.00,,,0.00,Wunderground v.1.15,2013-03-29 14:41:00,
2013-03-29 10:47:00,54.1,27.0,30.19,South,180,3.0,7.0,35,0.00,,,0.00,Wunderground v.1.15,2013-03-29 14:47:00,
2013-03-29 10:52:00,53.9,26.8,30.19,SE,146,4.0,4.0,35,0.00,,,0.00,Wunderground v.1.15,2013-03-29 14:52:00,
2013-03-29 10:58:00,53.8,26.8,30.19,SE,142,3.0,6.0,35,0.00,,,0.00,Wunderground v.1.15,2013-03-29 14:58:00,
2013-03-29 11:03:00,53.9,26.8,30.18,SE,134,2.0,9.0,35,0.00,,,0.00,Wunderground v.1.15,2013-03-29 15:03:00,
2013-03-29 11:09:00,54.1,27.7,30.18,South,180,2.0,9.0,36,0.00,,,0.00,Wunderground v.1.15,2013-03-29 15:09:00,
2013-03-29 11:14:00,54.4,29.9,30.18,SSW,199,3.0,9.0,39,0.00,,,0.00,Wunderground v.1.15,2013-03-29 15:14:00,
2013-03-29 11:20:00,54.7,28.2,30.18,SE,146,3.0,9.0,36,0.00,,,0.00,Wunderground v.1.15,2013-03-29 15:20:00,
2013-03-29 11:25:00,54.7,27.6,30.18,SE,144,4.0,9.0,35,0.00,,,0.00,Wunderground v.1.15,2013-03-29 15:25:00,
2013-03-29 11:31:00,54.7,29.6,30.18,SE,130,2.0,9.0,38,0.00,,,0.00,Wunderground v.1.15,2013-03-29 15:31:00,
2013-03-29 11:37:00,55.1,29.3,30.18,ESE,106,2.0,10.0,37,0.00,,,0.00,Wunderground v.1.15,2013-03-29 15:37:00,
2013-03-29 11:43:00,55.4,28.2,30.18,SSE,154,3.0,10.0,35,0.00,,,0.00,Wunderground v.1.15,2013-03-29 15:43:00,
2013-03-29 11:48:00,55.4,28.2,30.18,SSE,162,3.0,10.0,35,0.00,,,0.00,Wunderground v.1.15,2013-03-29 15:48:00,
2013-03-29 11:54:00,55.0,27.8,30.18,SSW,192,4.0,10.0,35,0.00,,,0.00,Wunderground v.1.15,2013-03-29 15:54:00,
2013-03-29 11:59:00,54.8,27.6,30.18,SE,144,4.0,10.0,35,0.00,,,0.00,Wunderground v.1.15,2013-03-29 15:59:00,
2013-03-29 12:04:00,55.1,29.3,30.18,South,175,4.0,10.0,37,0.00,,,0.00,Wunderground v.1.15,2013-03-29 16:04:00,
2013-03-29 12:09:00,55.3,30.1,30.18,SSW,199,3.0,10.0,38,0.00,,,0.00,Wunderground v.1.15,2013-03-29 16:09:00,
2013-03-29 12:15:00,55.4,28.9,30.17,SSW,199,3.0,10.0,36,0.00,,,0.00,Wunderground v.1.15,2013-03-29 16:15:00,
2013-03-29 12:20:00,55.3,30.1,30.17,ESE,104,3.0,10.0,38,0.00,,,0.00,Wunderground v.1.15,2013-03-29 16:20:00,
2013-03-29 12:25:00,56.3,29.0,30.17,ESE,107,3.0,10.0,35,0.00,,,0.00,Wunderground v.1.15,2013-03-29 16:25:00,
2013-03-29 12:30:00,57.2,29.1,30.17,SE,132,3.0,10.0,34,0.00,,,0.00,Wunderground v.1.15,2013-03-29 16:30:00,
2013-03-29 12:36:00,57.6,28.7,30.17,ESE,121,2.0,13.0,33,0.00,,,0.00,Wunderground v.1.15,2013-03-29 16:36:00,
2013-03-29 12:42:00,57.5,30.0,30.17,SE,133,4.0,4.0,35,0.00,,,0.00,Wunderground v.1.15,2013-03-29 16:42:00,
2013-03-29 12:47:00,56.6,28.5,30.16,SE,144,3.0,13.0,34,0.00,,,0.00,Wunderground v.1.15,2013-03-29 16:47:00,
2013-03-29 12:53:00,56.7,29.3,30.16,ESE,110,3.0,5.0,35,0.00,,,0.00,Wunderground v.1.15,2013-03-29 16:53:00,
2013-03-29 12:58:00,57.2,30.5,30.16,ESE,109,2.0,13.0,36,0.00,,,0.00,Wunderground v.1.15,2013-03-29 16:58:00,
2013-03-29 13:03:00,58.1,29.8,30.15,SSE,148,2.0,13.0,34,0.00,,,0.00,Wunderground v.1.15,2013-03-29 17:03:00,
2013-03-29 13:09:00,58.1,29.1,30.15,SSW,210,4.0,14.0,33,0.00,,,0.00,Wunderground v.1.15,2013-03-29 17:09:00,
2013-03-29 13:14:00,57.0,28.9,30.15,South,178,4.0,14.0,34,0.00,,,0.00,Wunderground v.1.15,2013-03-29 17:14:00,
2013-03-29 13:19:00,56.9,30.2,30.15,South,183,3.0,14.0,36,0.00,,,0.00,Wunderground v.1.15,2013-03-29 17:19:00,
2013-03-29 13:25:00,57.2,29.1,30.15,SE,143,3.0,14.0,34,0.00,,,0.00,Wunderground v.1.15,2013-03-29 17:25:00,
2013-03-29 13:31:00,58.1,29.8,30.14,SE,142,4.0,14.0,34,0.00,,,0.00,Wunderground v.1.15,2013-03-29 17:31:00,
2013-03-29 13:36:00,58.4,31.5,30.14,SE,142,5.0,14.0,36,0.00,,,0.00,Wunderground v.1.15,2013-03-29 17:36:00,
2013-03-29 13:41:00,58.7,31.8,30.14,SE,135,4.0,14.0,36,0.00,,,0.00,Wunderground v.1.15,2013-03-29 17:41:00,
2013-03-29 13:47:00,59.2,31.5,30.14,SSW,204,4.0,9.0,35,0.00,,,0.00,Wunderground v.1.15,2013-03-29 17:47:00,
2013-03-29 13:53:00,58.4,31.5,30.14,SE,139,5.0,9.0,36,0.00,,,0.00,Wunderground v.1.15,2013-03-29 17:53:00,
2013-03-29 13:59:00,58.3,30.7,30.14,SSE,155,4.0,9.0,35,0.00,,,0.00,Wunderground v.1.15,2013-03-29 17:59:00,
2013-03-29 14:05:00,58.9,32.0,30.14,SSE,153,4.0,13.0,36,0.00,,,0.00,Wunderground v.1.15,2013-03-29 18:05:00,
2013-03-29 14:10:00,59.5,31.1,30.14,SSE,153,5.0,13.0,34,0.00,,,0.00,Wunderground v.1.15,2013-03-29 18:10:00,
2013-03-29 14:15:00,59.3,30.9,30.12,SE,146,4.0,13.0,34,0.00,,,0.00,Wunderground v.1.15,2013-03-29 18:15:00,
2013-03-29 14:21:00,59.2,30.1,30.12,SSE,161,4.0,13.0,33,0.00,,,0.00,Wunderground v.1.15,2013-03-29 18:21:00,
2013-03-29 14:26:00,58.9,31.3,30.12,South,188,4.0,13.0,35,0.00,,,0.00,Wunderground v.1.15,2013-03-29 18:26:00,
2013-03-29 14:31:00,58.6,32.4,30.12,SW,224,4.0,13.0,37,0.00,,,0.00,Wunderground v.1.15,2013-03-29 18:31:00,
2013-03-29 14:37:00,58.4,31.5,30.12,SSW,209,4.0,11.0,36,0.00,,,0.00,Wunderground v.1.15,2013-03-29 18:37:00,
2013-03-29 14:42:00,58.0,31.8,30.12,SSW,205,3.0,11.0,37,0.00,,,0.00,Wunderground v.1.15,2013-03-29 18:42:00,
2013-03-29 14:48:00,58.1,32.6,30.11,South,188,4.0,11.0,38,0.00,,,0.00,Wunderground v.1.15,2013-03-29 18:48:00,
2013-03-29 14:53:00,58.4,32.9,30.11,SSW,202,5.0,11.0,38,0.00,,,0.00,Wunderground v.1.15,2013-03-29 18:53:00,
2013-03-29 14:59:00,59.2,31.5,30.10,SSW,205,4.0,11.0,35,0.00,,,0.00,Wunderground v.1.15,2013-03-29 18:59:00,
2013-03-29 15:05:00,59.2,32.2,30.10,SE,144,5.0,13.0,36,0.00,,,0.00,Wunderground v.1.15,2013-03-29 19:05:00,
2013-03-29 15:10:00,59.3,30.9,30.10,SSW,196,4.0,13.0,34,0.00,,,0.00,Wunderground v.1.15,2013-03-29 19:10:00,
2013-03-29 15:16:00,58.6,31.7,30.10,SSW,212,5.0,13.0,36,0.00,,,0.00,Wunderground v.1.15,2013-03-29 19:16:00,
2013-03-29 15:21:00,58.1,31.9,30.10,SSE,157,5.0,13.0,37,0.00,,,0.00,Wunderground v.1.15,2013-03-29 19:21:00,
2013-03-29 15:27:00,58.6,33.0,30.10,SSW,207,4.0,13.0,38,0.00,,,0.00,Wunderground v.1.15,2013-03-29 19:27:00,
2013-03-29 15:32:00,58.4,31.5,30.09,SW,231,4.0,13.0,36,0.00,,,0.00,Wunderground v.1.15,2013-03-29 19:32:00,
2013-03-29 15:38:00,57.5,32.7,30.09,South,175,5.0,13.0,39,0.00,,,0.00,Wunderground v.1.15,2013-03-29 19:38:00,
2013-03-29 15:43:00,58.1,33.9,30.09,ESE,119,5.0,12.0,40,0.00,,,0.00,Wunderground v.1.15,2013-03-29 19:43:00,
2013-03-29 15:48:00,58.3,31.4,30.09,SSE,160,4.0,12.0,36,0.00,,,0.00,Wunderground v.1.15,2013-03-29 19:48:00,
2013-03-29 15:53:00,58.6,31.7,30.09,SW,216,5.0,12.0,36,0.00,,,0.00,Wunderground v.1.15,2013-03-29 19:53:00,
2013-03-29 15:59:00,58.3,32.1,30.08,SW,217,5.0,12.0,37,0.00,,,0.00,Wunderground v.1.15,2013-03-29 19:59:00,
2013-03-29 16:05:00,58.6,31.0,30.08,SSE,147,4.0,13.0,35,0.00,,,0.00,Wunderground v.1.15,2013-03-29 20:05:00,
2013-03-29 16:10:00,59.0,32.1,30.08,SSW,199,4.0,13.0,36,0.00,,,0.00,Wunderground v.1.15,2013-03-29 20:10:00,
2013-03-29 16:17:00,58.9,31.3,30.08,SE,128,4.0,13.0,35,0.00,,,0.00,Wunderground v.1.15,2013-03-29 20:17:00,
2013-03-29 16:22:00,58.9,31.3,30.08,SSW,211,5.0,5.0,35,0.00,,,0.00,Wunderground v.1.15,2013-03-29 20:22:00,
2013-03-29 16:28:00,58.4,32.2,30.08,South,169,5.0,13.0,37,0.00,,,0.00,Wunderground v.1.15,2013-03-29 20:28:00,
2013-03-29 16:33:00,58.4,30.8,30.08,SSW,208,5.0,13.0,35,0.00,,,0.00,Wunderground v.1.15,2013-03-29 20:33:00,
2013-03-29 16:39:00,58.3,30.7,30.08,South,185,4.0,13.0,35,0.00,,,0.00,Wunderground v.1.15,2013-03-29 20:39:00,
2013-03-29 16:44:00,58.3,31.4,30.08,SSW,211,4.0,12.0,36,0.00,,,0.00,Wunderground v.1.15,2013-03-29 20:44:00,
2013-03-29 16:50:00,58.3,31.4,30.08,South,188,4.0,12.0,36,0.00,,,0.00,Wunderground v.1.15,2013-03-29 20:50:00,
2013-03-29 16:55:00,58.3,32.1,30.08,South,178,3.0,12.0,37,0.00,,,0.00,Wunderground v.1.15,2013-03-29 20:55:00,
2013-03-29 17:00:00,58.4,32.9,30.08,SSW,213,3.0,12.0,38,0.00,,,0.00,Wunderground v.1.15,2013-03-29 21:00:00,
2013-03-29 17:06:00,57.5,33.3,30.08,SSW,200,4.0,13.0,40,0.00,,,0.00,Wunderground v.1.15,2013-03-29 21:06:00,
2013-03-29 17:12:00,57.5,34.0,30.08,South,184,4.0,13.0,41,0.00,,,0.00,Wunderground v.1.15,2013-03-29 21:12:00,
2013-03-29 17:17:00,57.3,33.2,30.07,SE,136,5.0,13.0,40,0.00,,,0.00,Wunderground v.1.15,2013-03-29 21:17:00,
2013-03-29 17:23:00,57.5,34.6,30.07,SSW,192,4.0,13.0,42,0.00,,,0.00,Wunderground v.1.15,2013-03-29 21:23:00,
2013-03-29 17:28:00,57.8,34.2,30.07,South,175,3.0,13.0,41,0.00,,,0.00,Wunderground v.1.15,2013-03-29 21:28:00,
2013-03-29 17:33:00,58.3,34.7,30.07,SSW,213,2.0,12.0,41,0.00,,,0.00,Wunderground v.1.15,2013-03-29 21:33:00,
2013-03-29 17:38:00,58.1,34.5,30.07,WSW,244,3.0,12.0,41,0.00,,,0.00,Wunderground v.1.15,2013-03-29 21:38:00,
2013-03-29 17:43:00,57.8,34.8,30.07,NW,304,4.0,12.0,42,0.00,,,0.00,Wunderground v.1.15,2013-03-29 21:43:00,
2013-03-29 17:49:00,57.5,34.6,30.08,SSW,204,4.0,12.0,42,0.00,,,0.00,Wunderground v.1.15,2013-03-29 21:49:00,
2013-03-29 17:54:00,57.2,34.9,30.08,SSW,197,4.0,12.0,43,0.00,,,0.00,Wunderground v.1.15,2013-03-29 21:54:00,
2013-03-29 17:59:00,57.2,35.5,30.07,SSW,200,4.0,12.0,44,0.00,,,0.00,Wunderground v.1.15,2013-03-29 21:59:00,
2013-03-29 18:04:00,57.2,35.5,30.07,South,175,4.0,15.0,44,0.00,,,0.00,Wunderground v.1.15,2013-03-29 22:04:00,
2013-03-29 18:10:00,57.2,35.5,30.07,West,261,3.0,15.0,44,0.00,,,0.00,Wunderground v.1.15,2013-03-29 22:10:00,
2013-03-29 18:15:00,56.7,35.6,30.08,SSW,196,4.0,15.0,45,0.00,,,0.00,Wunderground v.1.15,2013-03-29 22:15:00,
2013-03-29 18:20:00,56.5,35.4,30.08,SSW,205,4.0,15.0,45,0.00,,,0.00,Wunderground v.1.15,2013-03-29 22:20:00,
2013-03-29 18:25:00,56.2,35.1,30.08,SSW,202,3.0,15.0,45,0.00,,,0.00,Wunderground v.1.15,2013-03-29 22:25:00,
2013-03-29 18:30:00,55.9,35.4,30.08,SW,218,3.0,15.0,46,0.00,,,0.00,Wunderground v.1.15,2013-03-29 22:30:00,
2013-03-29 18:35:00,55.6,35.7,30.08,SW,223,4.0,15.0,47,0.00,,,0.00,Wunderground v.1.15,2013-03-29 22:35:00,
2013-03-29 18:41:00,55.6,36.2,30.08,SSW,198,3.0,15.0,48,0.00,,,0.00,Wunderground v.1.15,2013-03-29 22:41:00,
2013-03-29 18:46:00,55.6,36.7,30.08,SSW,199,2.0,12.0,49,0.00,,,0.00,Wunderground v.1.15,2013-03-29 22:46:00,
2013-03-29 18:51:00,55.4,36.5,30.08,SSW,207,1.0,12.0,49,0.00,,,0.00,Wunderground v.1.15,2013-03-29 22:51:00,
2013-03-29 18:57:00,55.0,36.7,30.08,SSW,196,1.0,12.0,50,0.00,,,0.00,Wunderground v.1.15,2013-03-29 22:57:00,
2013-03-29 19:02:00,54.7,36.9,30.08,SSW,192,2.0,2.0,51,0.00,,,0.00,Wunderground v.1.15,2013-03-29 23:02:00,
2013-03-29 19:07:00,54.4,37.1,30.08,SSW,192,2.0,12.0,52,0.00,,,0.00,Wunderground v.1.15,2013-03-29 23:07:00,
2013-03-29 19:13:00,54.1,37.3,30.08,SSW,204,3.0,10.0,53,0.00,,,0.00,Wunderground v.1.15,2013-03-29 23:13:00,
2013-03-29 19:18:00,53.8,37.1,30.08,SSW,209,2.0,10.0,53,0.00,,,0.00,Wunderground v.1.15,2013-03-29 23:18:00,
2013-03-29 19:23:00,53.6,36.9,30.08,SSW,192,2.0,10.0,53,0.00,,,0.00,Wunderground v.1.15,2013-03-29 23:23:00,
2013-03-29 19:28:00,53.6,36.9,30.08,SSW,207,2.0,10.0,53,0.00,,,0.00,Wunderground v.1.15,2013-03-29 23:28:00,
2013-03-29 19:34:00,53.5,37.3,30.08,SSW,211,2.0,10.0,54,0.00,,,0.00,Wunderground v.1.15,2013-03-29 23:34:00,
2013-03-29 19:39:00,53.3,37.1,30.08,SSW,201,2.0,10.0,54,0.00,,,0.00,Wunderground v.1.15,2013-03-29 23:39:00,
2013-03-29 19:44:00,53.3,37.1,30.08,SW,227,2.0,8.0,54,0.00,,,0.00,Wunderground v.1.15,2013-03-29 23:44:00,
2013-03-29 19:49:00,53.3,37.5,30.08,SSW,211,1.0,8.0,55,0.00,,,0.00,Wunderground v.1.15,2013-03-29 23:49:00,
2013-03-29 19:55:00,53.3,37.5,30.08,SSW,209,1.0,8.0,55,0.00,,,0.00,Wunderground v.1.15,2013-03-29 23:55:00,
2013-03-29 20:00:00,53.2,37.4,30.08,SSW,211,1.0,8.0,55,0.00,,,0.00,Wunderground v.1.15,2013-03-30 00:00:00,
2013-03-29 20:05:00,53.2,37.4,30.08,SSW,211,1.0,9.0,55,0.00,,,0.00,Wunderground v.1.15,2013-03-30 00:05:00,
2013-03-29 20:11:00,53.2,37.9,30.08,SSW,211,1.0,9.0,56,0.00,,,0.00,Wunderground v.1.15,2013-03-30 00:11:00,
2013-03-29 20:16:00,53.2,37.9,30.08,SSW,211,1.0,9.0,56,0.00,,,0.00,Wunderground v.1.15,2013-03-30 00:16:00,
2013-03-29 20:21:00,53.2,37.9,30.08,SSW,211,0.0,9.0,56,0.00,,,0.00,Wunderground v.1.15,2013-03-30 00:21:00,
2013-03-29 20:26:00,53.2,38.4,30.08,SSW,211,0.0,9.0,57,0.00,,,0.00,Wunderground v.1.15,2013-03-30 00:26:00,
2013-03-29 20:32:00,53.2,38.4,30.08,SSW,211,1.0,1.0,57,0.00,,,0.00,Wunderground v.1.15,2013-03-30 00:32:00,
2013-03-29 20:38:00,53.2,38.4,30.08,SSW,211,1.0,5.0,57,0.00,,,0.00,Wunderground v.1.15,2013-03-30 00:38:00,
2013-03-29 20:43:00,53.2,38.8,30.08,SSW,211,0.0,5.0,58,0.00,,,0.00,Wunderground v.1.15,2013-03-30 00:43:00,
2013-03-29 20:48:00,53.2,38.8,30.09,SSW,211,1.0,5.0,58,0.00,,,0.00,Wunderground v.1.15,2013-03-30 00:48:00,
2013-03-29 20:54:00,53.2,39.2,30.09,SSW,211,0.0,5.0,59,0.00,,,0.00,Wunderground v.1.15,2013-03-30 00:54:00,
2013-03-29 20:59:00,53.2,39.2,30.09,SSW,211,0.0,5.0,59,0.00,,,0.00,Wunderground v.1.15,2013-03-30 00:59:00,
2013-03-29 21:04:00,53.2,39.2,30.09,SSW,211,0.0,5.0,59,0.00,,,0.00,Wunderground v.1.15,2013-03-30 01:04:00,
2013-03-29 21:10:00,53.1,39.1,30.09,SSW,211,1.0,5.0,59,0.00,,,0.00,Wunderground v.1.15,2013-03-30 01:10:00,
2013-03-29 21:15:00,53.1,39.6,30.09,SSW,211,1.0,3.0,60,0.00,,,0.00,Wunderground v.1.15,2013-03-30 01:15:00,
2013-03-29 21:20:00,53.1,39.1,30.09,SSW,211,1.0,3.0,59,0.00,,,0.00,Wunderground v.1.15,2013-03-30 01:20:00,
2013-03-29 21:25:00,53.1,38.7,30.09,SSW,211,1.0,3.0,58,0.00,,,0.00,Wunderground v.1.15,2013-03-30 01:25:00,
2013-03-29 21:30:00,53.1,38.3,30.09,SSW,211,1.0,3.0,57,0.00,,,0.00,Wunderground v.1.15,2013-03-30 01:30:00,
2013-03-29 21:37:00,53.2,38.4,30.09,SSW,211,1.0,4.0,57,0.00,,,0.00,Wunderground v.1.15,2013-03-30 01:37:00,
2013-03-29 21:42:00,53.2,38.4,30.09,SSW,211,1.0,1.0,57,0.00,,,0.00,Wunderground v.1.15,2013-03-30 01:42:00,
2013-03-29 21:48:00,53.2,37.9,30.09,SSW,211,1.0,4.0,56,0.00,,,0.00,Wunderground v.1.15,2013-03-30 01:48:00,
2013-03-29 21:53:00,53.1,37.8,30.09,SSW,211,1.0,4.0,56,0.00,,,0.00,Wunderground v.1.15,2013-03-30 01:53:00,
2013-03-29 21:59:00,53.1,37.3,30.09,SSW,211,0.0,4.0,55,0.00,,,0.00,Wunderground v.1.15,2013-03-30 01:59:00,
2013-03-29 22:04:00,52.9,37.2,30.09,SSW,211,0.0,5.0,55,0.00,,,0.00,Wunderground v.1.15,2013-03-30 02:04:00,
2013-03-29 22:09:00,52.8,37.1,30.09,SSW,211,1.0,5.0,55,0.00,,,0.00,Wunderground v.1.15,2013-03-30 02:09:00,
2013-03-29 22:15:00,52.8,37.1,30.09,SSW,211,1.0,5.0,55,0.00,,,0.00,Wunderground v.1.15,2013-03-30 02:15:00,
2013-03-29 22:20:00,52.8,37.1,30.09,SSW,211,1.0,5.0,55,0.00,,,0.00,Wunderground v.1.15,2013-03-30 02:20:00,
2013-03-29 22:26:00,52.6,36.9,30.09,SSW,211,0.0,5.0,55,0.00,,,0.00,Wunderground v.1.15,2013-03-30 02:26:00,
2013-03-29 22:31:00,52.6,36.9,30.10,SSW,211,0.0,5.0,55,0.00,,,0.00,Wunderground v.1.15,2013-03-30 02:31:00,
2013-03-29 22:37:00,52.6,36.9,30.10,SSW,211,1.0,5.0,55,0.00,,,0.00,Wunderground v.1.15,2013-03-30 02:37:00,
2013-03-29 22:42:00,52.8,37.1,30.10,SSW,211,1.0,1.0,55,0.00,,,0.00,Wunderground v.1.15,2013-03-30 02:42:00,
2013-03-29 22:47:00,52.8,37.5,30.10,SSW,211,1.0,4.0,56,0.00,,,0.00,Wunderground v.1.15,2013-03-30 02:47:00,
2013-03-29 22:52:00,52.8,37.5,30.10,SSW,211,0.0,4.0,56,0.00,,,0.00,Wunderground v.1.15,2013-03-30 02:52:00,
2013-03-29 22:58:00,52.8,38.0,30.10,SSW,211,1.0,4.0,57,0.00,,,0.00,Wunderground v.1.15,2013-03-30 02:58:00,
2013-03-29 23:03:00,52.8,38.0,30.10,SSW,211,0.0,2.0,57,0.00,,,0.00,Wunderground v.1.15,2013-03-30 03:03:00,
2013-03-29 23:08:00,52.8,38.4,30.10,SSW,211,0.0,5.0,58,0.00,,,0.00,Wunderground v.1.15,2013-03-30 03:08:00,
2013-03-29 23:13:00,52.6,38.2,30.10,SSW,211,0.0,5.0,58,0.00,,,0.00,Wunderground v.1.15,2013-03-30 03:13:00,
2013-03-29 23:18:00,52.6,38.2,30.09,SSW,211,1.0,5.0,58,0.00,,,0.00,Wunderground v.1.15,2013-03-30 03:18:00,
2013-03-29 23:24:00,52.5,38.6,30.09,SSW,211,0.0,5.0,59,0.00,,,0.00,Wunderground v.1.15,2013-03-30 03:24:00,
2013-03-29 23:29:00,52.3,38.4,30.09,SSW,211,0.0,5.0,59,0.00,,,0.00,Wunderground v.1.15,2013-03-30 03:29:00,
2013-03-29 23:34:00,52.2,38.7,30.09,SSW,211,0.0,5.0,60,0.00,,,0.00,Wunderground v.1.15,2013-03-30 03:34:00,
2013-03-29 23:40:00,52.0,38.5,30.09,SSW,211,0.0,5.0,60,0.00,,,0.00,Wunderground v.1.15,2013-03-30 03:40:00,
2013-03-29 23:45:00,51.9,38.4,30.09,SSW,211,0.0,4.0,60,0.00,,,0.00,Wunderground v.1.15,2013-03-30 03:45:00,
2013-03-29 23:50:00,51.7,38.7,30.09,SSW,211,0.0,4.0,61,0.00,,,0.00,Wunderground v.1.15,2013-03-30 03:50:00,
2013-03-29 23:55:00,51.7,39.1,30.09,SSW,211,0.0,4.0,62,0.00,,,0.00,Wunderground v.1.15,2013-03-30 03:55:00,